site,time,unit,value
Brawdy,2024-03-27T00:05:00+00:00,MW,-1.2679999999999998
Brawdy,2024-03-27T00:10:00+00:00,MW,-1.29
Brawdy,2024-03-27T00:15:00+00:00,MW,-1.263
Brawdy,2024-03-27T00:20:00+00:00,MW,-1.287
Brawdy,2024-03-27T00:25:00+00:00,MW,-1.2840000000000003
Brawdy,2024-03-27T00:30:00+00:00,MW,-1.3200000000000003
Brawdy,2024-03-27T00:35:00+00:00,MW,-1.3749999999999996
Brawdy,2024-03-27T00:40:00+00:00,MW,-1.4240000000000004
Brawdy,2024-03-27T00:45:00+00:00,MW,-1.4110000000000005
Brawdy,2024-03-27T00:50:00+00:00,MW,-1.342
Brawdy,2024-03-27T00:55:00+00:00,MW,-1.3739999999999999
Brawdy,2024-03-27T01:00:00+00:00,MW,-1.3630000000000004
Brawdy,2024-03-27T01:05:00+00:00,MW,-1.4049999999999996
Brawdy,2024-03-27T01:10:00+00:00,MW,-1.3840000000000003
Brawdy,2024-03-27T01:15:00+00:00,MW,-1.346
Brawdy,2024-03-27T01:20:00+00:00,MW,-1.3279999999999996
Brawdy,2024-03-27T01:25:00+00:00,MW,-1.375
Brawdy,2024-03-27T01:30:00+00:00,MW,-1.2890000000000004
Brawdy,2024-03-27T01:35:00+00:00,MW,-1.2819999999999996
Brawdy,2024-03-27T01:40:00+00:00,MW,-1.2669999999999995
Brawdy,2024-03-27T01:45:00+00:00,MW,-1.259
Brawdy,2024-03-27T01:50:00+00:00,MW,-1.287
Brawdy,2024-03-27T01:55:00+00:00,MW,-1.3359999999999999
Brawdy,2024-03-27T02:00:00+00:00,MW,-1.2540000000000004
Brawdy,2024-03-27T02:05:00+00:00,MW,-1.2439999999999996
Brawdy,2024-03-27T02:10:00+00:00,MW,-1.3170000000000002
Brawdy,2024-03-27T02:15:00+00:00,MW,-1.2719999999999998
Brawdy,2024-03-27T02:20:00+00:00,MW,-1.2520000000000002
Brawdy,2024-03-27T02:25:00+00:00,MW,-1.266
Brawdy,2024-03-27T02:30:00+00:00,MW,-1.234
Brawdy,2024-03-27T02:35:00+00:00,MW,-1.234
Brawdy,2024-03-27T02:40:00+00:00,MW,-1.226
Brawdy,2024-03-27T02:45:00+00:00,MW,-1.207
Brawdy,2024-03-27T02:50:00+00:00,MW,-1.236
Brawdy,2024-03-27T02:55:00+00:00,MW,-1.2160000000000002
Brawdy,2024-03-27T03:00:00+00:00,MW,-1.2099999999999997
Brawdy,2024-03-27T03:05:00+00:00,MW,-1.249
Brawdy,2024-03-27T03:10:00+00:00,MW,-1.234
Brawdy,2024-03-27T03:15:00+00:00,MW,-1.1890000000000003
Brawdy,2024-03-27T03:20:00+00:00,MW,-1.18
Brawdy,2024-03-27T03:25:00+00:00,MW,-1.192
Brawdy,2024-03-27T03:30:00+00:00,MW,-1.1739999999999997
Brawdy,2024-03-27T03:35:00+00:00,MW,-1.198
Brawdy,2024-03-27T03:40:00+00:00,MW,-1.211
Brawdy,2024-03-27T03:45:00+00:00,MW,-1.218
Brawdy,2024-03-27T03:50:00+00:00,MW,-1.1960000000000004
Brawdy,2024-03-27T03:55:00+00:00,MW,-1.2239999999999998
Brawdy,2024-03-27T04:00:00+00:00,MW,-1.178
Brawdy,2024-03-27T04:05:00+00:00,MW,-1.196
Brawdy,2024-03-27T04:10:00+00:00,MW,-1.1940000000000002
Brawdy,2024-03-27T04:15:00+00:00,MW,-1.209
Brawdy,2024-03-27T04:20:00+00:00,MW,-1.2029999999999998
Brawdy,2024-03-27T04:25:00+00:00,MW,-1.2309999999999999
Brawdy,2024-03-27T04:30:00+00:00,MW,-1.203
Brawdy,2024-03-27T04:35:00+00:00,MW,-1.2029999999999998
Brawdy,2024-03-27T04:40:00+00:00,MW,-1.2110000000000003
Brawdy,2024-03-27T04:45:00+00:00,MW,-1.2180000000000002
Brawdy,2024-03-27T04:50:00+00:00,MW,-1.185
Brawdy,2024-03-27T04:55:00+00:00,MW,-1.226
Brawdy,2024-03-27T05:00:00+00:00,MW,-1.202
Brawdy,2024-03-27T05:05:00+00:00,MW,-1.1789999999999998
Brawdy,2024-03-27T05:10:00+00:00,MW,-1.206
Brawdy,2024-03-27T05:15:00+00:00,MW,-1.307
Brawdy,2024-03-27T05:20:00+00:00,MW,-1.409
Brawdy,2024-03-27T05:25:00+00:00,MW,-1.4010000000000002
Brawdy,2024-03-27T05:30:00+00:00,MW,-1.2680000000000002
Brawdy,2024-03-27T05:35:00+00:00,MW,-1.2489999999999999
Brawdy,2024-03-27T05:40:00+00:00,MW,-1.209
Brawdy,2024-03-27T05:45:00+00:00,MW,-1.251
Brawdy,2024-03-27T05:50:00+00:00,MW,-1.2339999999999998
Brawdy,2024-03-27T05:55:00+00:00,MW,-1.28
Brawdy,2024-03-27T06:00:00+00:00,MW,-1.3480000000000003
Brawdy,2024-03-27T06:05:00+00:00,MW,-1.3089999999999997
Brawdy,2024-03-27T06:10:00+00:00,MW,-1.3769999999999996
Brawdy,2024-03-27T06:15:00+00:00,MW,-1.397
Brawdy,2024-03-27T06:20:00+00:00,MW,-1.408
Brawdy,2024-03-27T06:25:00+00:00,MW,-1.4260000000000002
Brawdy,2024-03-27T06:30:00+00:00,MW,-1.451
Brawdy,2024-03-27T06:35:00+00:00,MW,-1.5380000000000007
Brawdy,2024-03-27T06:40:00+00:00,MW,-1.5229999999999997
Brawdy,2024-03-27T06:45:00+00:00,MW,-1.504
Brawdy,2024-03-27T06:50:00+00:00,MW,-1.5569999999999995
Brawdy,2024-03-27T06:55:00+00:00,MW,-1.507
Brawdy,2024-03-27T07:00:00+00:00,MW,-1.5409999999999997
Brawdy,2024-03-27T07:05:00+00:00,MW,-1.5450000000000004
Brawdy,2024-03-27T07:10:00+00:00,MW,-1.5930000000000004
Brawdy,2024-03-27T07:15:00+00:00,MW,-1.6359999999999997
Brawdy,2024-03-27T07:20:00+00:00,MW,-1.6109999999999998
Brawdy,2024-03-27T07:25:00+00:00,MW,-1.5799999999999998
Brawdy,2024-03-27T07:30:00+00:00,MW,-1.613
Brawdy,2024-03-27T07:35:00+00:00,MW,-1.6260000000000001
Brawdy,2024-03-27T07:40:00+00:00,MW,-1.6629999999999994
Brawdy,2024-03-27T07:45:00+00:00,MW,-1.6150000000000002
Brawdy,2024-03-27T07:50:00+00:00,MW,-1.6960000000000002
Brawdy,2024-03-27T07:55:00+00:00,MW,-1.6710000000000003
Brawdy,2024-03-27T08:00:00+00:00,MW,-1.7350000000000003
Brawdy,2024-03-27T08:05:00+00:00,MW,-1.7920000000000003
Brawdy,2024-03-27T08:10:00+00:00,MW,-1.774
Brawdy,2024-03-27T08:15:00+00:00,MW,-1.7920000000000003
Brawdy,2024-03-27T08:20:00+00:00,MW,-1.7999999999999998
Brawdy,2024-03-27T08:25:00+00:00,MW,-1.8279999999999998
Brawdy,2024-03-27T08:30:00+00:00,MW,-1.7830000000000001
Brawdy,2024-03-27T08:35:00+00:00,MW,-1.7899999999999996
Brawdy,2024-03-27T08:40:00+00:00,MW,-1.8170000000000002
Brawdy,2024-03-27T08:45:00+00:00,MW,-1.8259999999999996
Brawdy,2024-03-27T08:50:00+00:00,MW,-1.777
Brawdy,2024-03-27T08:55:00+00:00,MW,-1.6899999999999997
Brawdy,2024-03-27T09:00:00+00:00,MW,-1.7299999999999998
Brawdy,2024-03-27T09:05:00+00:00,MW,-1.6860000000000004
Brawdy,2024-03-27T09:10:00+00:00,MW,-1.737
Brawdy,2024-03-27T09:15:00+00:00,MW,-1.6280000000000006
Brawdy,2024-03-27T09:20:00+00:00,MW,-1.599
Brawdy,2024-03-27T09:25:00+00:00,MW,-1.7479999999999998
Brawdy,2024-03-27T09:30:00+00:00,MW,-1.7479999999999998
Brawdy,2024-03-27T09:35:00+00:00,MW,-1.574
Brawdy,2024-03-27T09:40:00+00:00,MW,-1.5710000000000002
Brawdy,2024-03-27T09:45:00+00:00,MW,-1.4869999999999997
Brawdy,2024-03-27T09:50:00+00:00,MW,-1.582
Brawdy,2024-03-27T09:55:00+00:00,MW,-1.572
Brawdy,2024-03-27T10:00:00+00:00,MW,-1.4789999999999999
Brawdy,2024-03-27T10:05:00+00:00,MW,-1.6769999999999996
Brawdy,2024-03-27T10:10:00+00:00,MW,-1.602
Brawdy,2024-03-27T10:15:00+00:00,MW,-1.593
Brawdy,2024-03-27T10:20:00+00:00,MW,-1.5749999999999997
Brawdy,2024-03-27T10:25:00+00:00,MW,-1.4330000000000003
Brawdy,2024-03-27T10:30:00+00:00,MW,-1.4840000000000002
Brawdy,2024-03-27T10:35:00+00:00,MW,-1.5989999999999998
Brawdy,2024-03-27T10:40:00+00:00,MW,-1.645
Brawdy,2024-03-27T10:45:00+00:00,MW,-1.7109999999999999
Brawdy,2024-03-27T10:50:00+00:00,MW,-1.6079999999999999
Brawdy,2024-03-27T10:55:00+00:00,MW,-1.627
Brawdy,2024-03-27T11:00:00+00:00,MW,-1.697
Brawdy,2024-03-27T11:05:00+00:00,MW,-1.6350000000000002
Brawdy,2024-03-27T11:10:00+00:00,MW,-1.6810000000000003
Brawdy,2024-03-27T11:15:00+00:00,MW,-1.676
Brawdy,2024-03-27T11:20:00+00:00,MW,-1.4960000000000004
Brawdy,2024-03-27T11:25:00+00:00,MW,-1.5320000000000005
Brawdy,2024-03-27T11:30:00+00:00,MW,-1.44
Brawdy,2024-03-27T11:35:00+00:00,MW,-1.455
Brawdy,2024-03-27T11:40:00+00:00,MW,-1.4500000000000002
Brawdy,2024-03-27T11:45:00+00:00,MW,-1.4289999999999998
Brawdy,2024-03-27T11:50:00+00:00,MW,-1.371
Brawdy,2024-03-27T11:55:00+00:00,MW,-1.3699999999999999
Brawdy,2024-03-27T12:00:00+00:00,MW,-1.4779999999999998
Brawdy,2024-03-27T12:05:00+00:00,MW,-1.449
Brawdy,2024-03-27T12:10:00+00:00,MW,-1.4160000000000001
Brawdy,2024-03-27T12:15:00+00:00,MW,-1.4149999999999996
Brawdy,2024-03-27T12:20:00+00:00,MW,-1.4259999999999997
Brawdy,2024-03-27T12:25:00+00:00,MW,-1.3719999999999999
Brawdy,2024-03-27T12:30:00+00:00,MW,-1.5109999999999997
Brawdy,2024-03-27T12:35:00+00:00,MW,-1.426
Brawdy,2024-03-27T12:40:00+00:00,MW,-1.285
Brawdy,2024-03-27T12:45:00+00:00,MW,-1.189
Brawdy,2024-03-27T12:50:00+00:00,MW,-1.229
Brawdy,2024-03-27T12:55:00+00:00,MW,-1.1889999999999998
Brawdy,2024-03-27T13:00:00+00:00,MW,-1.1789999999999998
Brawdy,2024-03-27T13:05:00+00:00,MW,-1.287
Brawdy,2024-03-27T13:10:00+00:00,MW,-1.295
Brawdy,2024-03-27T13:15:00+00:00,MW,-1.2570000000000001
Brawdy,2024-03-27T13:20:00+00:00,MW,-1.239
Brawdy,2024-03-27T13:25:00+00:00,MW,-1.149
Brawdy,2024-03-27T13:30:00+00:00,MW,-1.168
Brawdy,2024-03-27T13:35:00+00:00,MW,-1.165
Brawdy,2024-03-27T13:40:00+00:00,MW,-1.2600000000000002
Brawdy,2024-03-27T13:45:00+00:00,MW,-1.23
Brawdy,2024-03-27T13:50:00+00:00,MW,-1.297
Brawdy,2024-03-27T13:55:00+00:00,MW,-1.3499999999999996
Brawdy,2024-03-27T14:00:00+00:00,MW,-1.3519999999999999
Brawdy,2024-03-27T14:05:00+00:00,MW,-1.4089999999999998
Brawdy,2024-03-27T14:10:00+00:00,MW,-1.318
Brawdy,2024-03-27T14:15:00+00:00,MW,-1.4110000000000003
Brawdy,2024-03-27T14:20:00+00:00,MW,-1.354
Brawdy,2024-03-27T14:25:00+00:00,MW,-1.405
Brawdy,2024-03-27T14:30:00+00:00,MW,-1.424
Brawdy,2024-03-27T14:35:00+00:00,MW,-1.3860000000000001
Brawdy,2024-03-27T14:40:00+00:00,MW,-1.432
Brawdy,2024-03-27T14:45:00+00:00,MW,-1.5019999999999998
Brawdy,2024-03-27T14:50:00+00:00,MW,-1.544
Brawdy,2024-03-27T14:55:00+00:00,MW,-1.5339999999999994
Brawdy,2024-03-27T15:00:00+00:00,MW,-1.5630000000000002
Brawdy,2024-03-27T15:05:00+00:00,MW,-1.5710000000000004
Brawdy,2024-03-27T15:10:00+00:00,MW,-1.546
Brawdy,2024-03-27T15:15:00+00:00,MW,-1.434
Brawdy,2024-03-27T15:20:00+00:00,MW,-1.4849999999999999
Brawdy,2024-03-27T15:25:00+00:00,MW,-1.3970000000000002
Brawdy,2024-03-27T15:30:00+00:00,MW,-1.359
Brawdy,2024-03-27T15:35:00+00:00,MW,-1.3950000000000002
Brawdy,2024-03-27T15:40:00+00:00,MW,-1.44
Brawdy,2024-03-27T15:45:00+00:00,MW,-1.4089999999999998
Brawdy,2024-03-27T15:50:00+00:00,MW,-1.3990000000000005
Brawdy,2024-03-27T15:55:00+00:00,MW,-1.4139999999999997
Brawdy,2024-03-27T16:00:00+00:00,MW,-1.3659999999999997
Brawdy,2024-03-27T16:05:00+00:00,MW,-1.3889999999999998
Brawdy,2024-03-27T16:10:00+00:00,MW,-1.4529999999999998
Brawdy,2024-03-27T16:15:00+00:00,MW,-1.548
Brawdy,2024-03-27T16:20:00+00:00,MW,-1.7070000000000005
Brawdy,2024-03-27T16:25:00+00:00,MW,-1.7239999999999995
Brawdy,2024-03-27T16:30:00+00:00,MW,-1.7969999999999997
Brawdy,2024-03-27T16:35:00+00:00,MW,-1.842
Brawdy,2024-03-27T16:40:00+00:00,MW,-1.8399999999999996
Brawdy,2024-03-27T16:45:00+00:00,MW,-1.8289999999999997
Brawdy,2024-03-27T16:50:00+00:00,MW,-1.751
Brawdy,2024-03-27T16:55:00+00:00,MW,-1.788
Brawdy,2024-03-27T17:00:00+00:00,MW,-1.8929999999999998
Brawdy,2024-03-27T17:05:00+00:00,MW,-1.986
Brawdy,2024-03-27T17:10:00+00:00,MW,-1.9779999999999998
Brawdy,2024-03-27T17:15:00+00:00,MW,-2.0069999999999997
Brawdy,2024-03-27T17:20:00+00:00,MW,-1.9969999999999997
Brawdy,2024-03-27T17:25:00+00:00,MW,-2.035
Brawdy,2024-03-27T17:30:00+00:00,MW,-1.9729999999999999
Brawdy,2024-03-27T17:35:00+00:00,MW,-1.9650000000000005
Brawdy,2024-03-27T17:40:00+00:00,MW,-2.0290000000000004
Brawdy,2024-03-27T17:45:00+00:00,MW,-2.0220000000000002
Brawdy,2024-03-27T17:50:00+00:00,MW,-1.9609999999999996
Brawdy,2024-03-27T17:55:00+00:00,MW,-2.0029999999999997
Brawdy,2024-03-27T18:00:00+00:00,MW,-2.0409999999999995
Brawdy,2024-03-27T18:05:00+00:00,MW,-2.104
Brawdy,2024-03-27T18:10:00+00:00,MW,-2.045
Brawdy,2024-03-27T18:15:00+00:00,MW,-2.128
Brawdy,2024-03-27T18:20:00+00:00,MW,-2.1530000000000005
Brawdy,2024-03-27T18:25:00+00:00,MW,-2.1580000000000004
Brawdy,2024-03-27T18:30:00+00:00,MW,-2.1810000000000005
Brawdy,2024-03-27T18:35:00+00:00,MW,-2.165
Brawdy,2024-03-27T18:40:00+00:00,MW,-2.2550000000000003
Brawdy,2024-03-27T18:45:00+00:00,MW,-2.2380000000000004
Brawdy,2024-03-27T18:50:00+00:00,MW,-2.223
Brawdy,2024-03-27T18:55:00+00:00,MW,-2.297
Brawdy,2024-03-27T19:00:00+00:00,MW,-2.2880000000000003
Brawdy,2024-03-27T19:05:00+00:00,MW,-2.264
Brawdy,2024-03-27T19:10:00+00:00,MW,-2.301
Brawdy,2024-03-27T19:15:00+00:00,MW,-2.2079999999999997
Brawdy,2024-03-27T19:20:00+00:00,MW,-2.2319999999999998
Brawdy,2024-03-27T19:25:00+00:00,MW,-2.2890000000000006
Brawdy,2024-03-27T19:30:00+00:00,MW,-2.2239999999999998
Brawdy,2024-03-27T19:35:00+00:00,MW,-2.248
Brawdy,2024-03-27T19:40:00+00:00,MW,-2.2439999999999998
Brawdy,2024-03-27T19:45:00+00:00,MW,-2.284
Brawdy,2024-03-27T19:50:00+00:00,MW,-2.274
Brawdy,2024-03-27T19:55:00+00:00,MW,-2.274
Brawdy,2024-03-27T20:00:00+00:00,MW,-2.217
Brawdy,2024-03-27T20:05:00+00:00,MW,-2.197
Brawdy,2024-03-27T20:10:00+00:00,MW,-2.1660000000000004
Brawdy,2024-03-27T20:15:00+00:00,MW,-2.1689999999999996
Brawdy,2024-03-27T20:20:00+00:00,MW,-2.0799999999999996
Brawdy,2024-03-27T20:25:00+00:00,MW,-2.0700000000000003
Brawdy,2024-03-27T20:30:00+00:00,MW,-2.0990000000000006
Brawdy,2024-03-27T20:35:00+00:00,MW,-2.069000000000001
Brawdy,2024-03-27T20:40:00+00:00,MW,-2.059
Brawdy,2024-03-27T20:45:00+00:00,MW,-2.0690000000000004
Brawdy,2024-03-27T20:50:00+00:00,MW,-1.9609999999999994
Brawdy,2024-03-27T20:55:00+00:00,MW,-2.0260000000000002
Brawdy,2024-03-27T21:00:00+00:00,MW,-1.9410000000000003
Brawdy,2024-03-27T21:05:00+00:00,MW,-1.8889999999999998
Brawdy,2024-03-27T21:10:00+00:00,MW,-1.8570000000000002
Brawdy,2024-03-27T21:15:00+00:00,MW,-1.7719999999999998
Brawdy,2024-03-27T21:20:00+00:00,MW,-1.8070000000000004
Brawdy,2024-03-27T21:25:00+00:00,MW,-1.7879999999999998
Brawdy,2024-03-27T21:30:00+00:00,MW,-1.792
Brawdy,2024-03-27T21:35:00+00:00,MW,-1.79
Brawdy,2024-03-27T21:40:00+00:00,MW,-1.7089999999999996
Brawdy,2024-03-27T21:45:00+00:00,MW,-1.5670000000000004
Brawdy,2024-03-27T21:50:00+00:00,MW,-1.6229999999999998
Brawdy,2024-03-27T21:55:00+00:00,MW,-1.551
Brawdy,2024-03-27T22:00:00+00:00,MW,-1.6300000000000003
Brawdy,2024-03-27T22:05:00+00:00,MW,-1.5899999999999999
Brawdy,2024-03-27T22:10:00+00:00,MW,-1.6350000000000002
Brawdy,2024-03-27T22:15:00+00:00,MW,-1.5859999999999994
Brawdy,2024-03-27T22:20:00+00:00,MW,-1.4970000000000003
Brawdy,2024-03-27T22:25:00+00:00,MW,-1.4940000000000002
Brawdy,2024-03-27T22:30:00+00:00,MW,-1.4849999999999994
Brawdy,2024-03-27T22:35:00+00:00,MW,-1.4470000000000003
Brawdy,2024-03-27T22:40:00+00:00,MW,-1.496
Brawdy,2024-03-27T22:45:00+00:00,MW,-1.4620000000000002
Brawdy,2024-03-27T22:50:00+00:00,MW,-1.4109999999999991
Brawdy,2024-03-27T22:55:00+00:00,MW,-1.491
Brawdy,2024-03-27T23:00:00+00:00,MW,-1.4770000000000003
Brawdy,2024-03-27T23:05:00+00:00,MW,-1.4599999999999995
Brawdy,2024-03-27T23:10:00+00:00,MW,-1.3590000000000002
Brawdy,2024-03-27T23:15:00+00:00,MW,-1.3169999999999997
Brawdy,2024-03-27T23:20:00+00:00,MW,-1.3590000000000004
Brawdy,2024-03-27T23:25:00+00:00,MW,-1.2900000000000005
Brawdy,2024-03-27T23:30:00+00:00,MW,-1.2400000000000002
Brawdy,2024-03-27T23:35:00+00:00,MW,-1.2690000000000001
Brawdy,2024-03-27T23:40:00+00:00,MW,-1.303
Brawdy,2024-03-27T23:45:00+00:00,MW,-1.2899999999999996
Brawdy,2024-03-27T23:50:00+00:00,MW,-1.3519999999999999
Brawdy,2024-03-27T23:55:00+00:00,MW,-1.353
Brawdy,2024-03-28T00:00:00+00:00,MW,-1.3079999999999998
